TimePDT,TemperatureF,Dew PointF,Humidity,Sea Level PressureIn,VisibilityMPH,Wind Direction,Wind SpeedMPH,Gust SpeedMPH,PrecipitationIn,Events,Conditions,WindDirDegrees,DateUTC
12:15 AM,48.2,44.6,87,30.35,10.0,Calm,Calm,-,N/A,,Clear,0,2014-04-07 07:15:00
12:35 AM,46.4,44.6,93,30.35,10.0,Calm,Calm,-,N/A,,Scattered Clouds,0,2014-04-07 07:35:00
12:55 AM,48.2,44.6,87,30.35,10.0,Calm,Calm,-,N/A,,Overcast,0,2014-04-07 07:55:00
1:15 AM,48.2,46.4,93,30.34,10.0,Calm,Calm,-,N/A,,Overcast,0,2014-04-07 08:15:00
1:35 AM,48.2,46.4,93,30.34,10.0,Calm,Calm,-,N/A,,Overcast,0,2014-04-07 08:35:00
1:55 AM,50.0,46.4,87,30.34,10.0,Calm,Calm,-,N/A,,Overcast,0,2014-04-07 08:55:00
2:15 AM,50.0,46.4,87,30.34,10.0,Calm,Calm,-,N/A,,Overcast,0,2014-04-07 09:15:00
2:35 AM,51.8,46.4,82,30.34,10.0,Calm,Calm,-,N/A,,Overcast,0,2014-04-07 09:35:00
2:55 AM,50.0,46.4,87,30.33,10.0,East,5.8,-,N/A,,Overcast,80,2014-04-07 09:55:00
3:15 AM,50.0,46.4,87,30.33,10.0,Calm,Calm,-,N/A,,Overcast,0,2014-04-07 10:15:00
3:35 AM,50.0,46.4,87,30.33,10.0,Calm,Calm,-,N/A,,Overcast,0,2014-04-07 10:35:00
3:55 AM,50.0,46.4,87,30.33,10.0,Calm,Calm,-,N/A,,Overcast,0,2014-04-07 10:55:00
4:15 AM,50.0,46.4,87,30.32,10.0,ENE,3.5,-,N/A,,Overcast,70,2014-04-07 11:15:00
4:35 AM,48.2,44.6,87,30.32,10.0,Calm,Calm,-,N/A,,Overcast,0,2014-04-07 11:35:00
4:55 AM,48.2,44.6,87,30.32,10.0,Calm,Calm,-,N/A,,Overcast,0,2014-04-07 11:55:00
5:15 AM,48.2,44.6,87,30.31,10.0,Calm,Calm,-,N/A,,Overcast,0,2014-04-07 12:15:00
5:35 AM,48.2,44.6,87,30.31,10.0,Calm,Calm,-,N/A,,Overcast,0,2014-04-07 12:35:00
5:55 AM,48.2,44.6,87,30.31,10.0,Calm,Calm,-,N/A,,Overcast,0,2014-04-07 12:55:00
6:15 AM,48.2,46.4,93,30.31,10.0,Calm,Calm,-,N/A,,Overcast,0,2014-04-07 13:15:00
6:35 AM,48.2,46.4,93,30.31,10.0,Calm,Calm,-,N/A,,Overcast,0,2014-04-07 13:35:00
6:55 AM,48.2,44.6,87,30.30,10.0,Calm,Calm,-,N/A,,Overcast,0,2014-04-07 13:55:00
7:15 AM,48.2,46.4,93,30.30,10.0,Calm,Calm,-,N/A,,Overcast,0,2014-04-07 14:15:00
7:35 AM,48.2,44.6,87,30.30,10.0,Calm,Calm,-,N/A,,Overcast,0,2014-04-07 14:35:00
7:55 AM,48.2,46.4,93,30.30,10.0,Calm,Calm,-,N/A,,Overcast,0,2014-04-07 14:55:00
8:15 AM,50.0,46.4,87,30.30,10.0,Calm,Calm,-,N/A,,Overcast,0,2014-04-07 15:15:00
8:35 AM,50.0,46.4,87,30.29,10.0,Calm,Calm,-,N/A,,Overcast,0,2014-04-07 15:35:00
8:55 AM,50.0,44.6,82,30.29,10.0,Calm,Calm,-,N/A,,Overcast,0,2014-04-07 15:55:00
9:15 AM,50.0,46.4,87,30.28,10.0,Calm,Calm,-,N/A,,Overcast,0,2014-04-07 16:15:00
9:35 AM,51.8,46.4,82,30.28,5.0,Calm,Calm,-,N/A,,Overcast,0,2014-04-07 16:35:00
9:55 AM,51.8,46.4,82,30.27,10.0,South,3.5,-,N/A,,Overcast,190,2014-04-07 16:55:00
10:15 AM,51.8,46.4,82,30.27,10.0,Calm,Calm,-,N/A,,Overcast,0,2014-04-07 17:15:00
10:35 AM,51.8,46.4,82,30.26,10.0,Calm,Calm,-,N/A,,Overcast,0,2014-04-07 17:35:00
10:55 AM,53.6,46.4,77,30.26,10.0,Calm,Calm,-,N/A,,Mostly Cloudy,0,2014-04-07 17:55:00
11:15 AM,55.4,48.2,77,30.25,10.0,Calm,Calm,-,N/A,,Partly Cloudy,0,2014-04-07 18:15:00
11:35 AM,55.4,48.2,77,30.24,10.0,South,3.5,-,N/A,,Clear,190,2014-04-07 18:35:00
11:55 AM,59.0,48.2,67,30.24,10.0,Calm,Calm,-,N/A,,Clear,0,2014-04-07 18:55:00
12:15 PM,60.8,50.0,68,30.23,10.0,South,3.5,-,N/A,,Clear,180,2014-04-07 19:15:00
12:35 PM,62.6,50.0,63,30.22,10.0,ESE,4.6,-,N/A,,Clear,120,2014-04-07 19:35:00
1:15 PM,66.2,48.2,52,30.20,10.0,SSE,9.2,-,N/A,,Clear,150,2014-04-07 20:15:00
1:35 PM,69.8,48.2,46,30.19,10.0,SE,9.2,-,N/A,,Clear,130,2014-04-07 20:35:00
1:55 PM,69.8,48.2,46,30.19,10.0,SSE,8.1,-,N/A,,Clear,150,2014-04-07 20:55:00
2:15 PM,71.6,46.4,41,30.17,10.0,SSE,10.4,-,N/A,,Clear,150,2014-04-07 21:15:00
2:35 PM,71.6,46.4,41,30.17,10.0,South,8.1,-,N/A,,Clear,170,2014-04-07 21:35:00
2:55 PM,71.6,46.4,41,30.17,10.0,South,10.4,-,N/A,,Clear,170,2014-04-07 21:55:00
3:15 PM,71.6,46.4,41,30.15,10.0,South,10.4,-,N/A,,Clear,170,2014-04-07 22:15:00
3:35 PM,71.6,44.6,38,30.14,10.0,South,9.2,-,N/A,,Clear,170,2014-04-07 22:35:00
3:55 PM,73.4,46.4,38,30.13,10.0,South,10.4,-,N/A,,Clear,170,2014-04-07 22:55:00
4:15 PM,73.4,46.4,38,30.12,10.0,South,10.4,-,N/A,,Clear,170,2014-04-07 23:15:00
4:35 PM,73.4,46.4,38,30.12,10.0,South,10.4,-,N/A,,Clear,170,2014-04-07 23:35:00
4:55 PM,73.4,48.2,41,30.13,10.0,South,8.1,-,N/A,,Clear,180,2014-04-07 23:55:00
5:15 PM,71.6,51.8,50,30.14,10.0,WNW,8.1,-,N/A,,Clear,290,2014-04-08 00:15:00
5:35 PM,69.8,50.0,49,30.15,10.0,WNW,4.6,-,N/A,,Clear,290,2014-04-08 00:35:00
5:55 PM,68.0,50.0,52,30.15,10.0,WNW,8.1,-,N/A,,Clear,290,2014-04-08 00:55:00
6:15 PM,66.2,50.0,56,30.15,10.0,NW,5.8,-,N/A,,Clear,310,2014-04-08 01:15:00
6:35 PM,64.4,48.2,56,30.15,10.0,WNW,9.2,-,N/A,,Clear,300,2014-04-08 01:35:00
6:55 PM,62.6,48.2,59,30.15,10.0,WNW,4.6,-,N/A,,Clear,300,2014-04-08 01:55:00
7:15 PM,60.8,46.4,59,30.16,10.0,WNW,5.8,-,N/A,,Clear,290,2014-04-08 02:15:00
7:35 PM,60.8,46.4,59,30.16,10.0,NW,6.9,-,N/A,,Clear,310,2014-04-08 02:35:00
7:55 PM,59.0,46.4,63,30.16,10.0,WNW,6.9,-,N/A,,Clear,300,2014-04-08 02:55:00
8:15 PM,57.2,46.4,67,30.17,10.0,NNW,5.8,-,N/A,,Clear,330,2014-04-08 03:15:00
8:35 PM,57.2,46.4,67,30.18,10.0,NW,3.5,-,N/A,,Clear,320,2014-04-08 03:35:00
8:55 PM,55.4,46.4,72,30.19,10.0,Calm,Calm,-,N/A,,Clear,0,2014-04-08 03:55:00
9:15 PM,55.4,46.4,72,30.20,10.0,WNW,3.5,-,N/A,,Clear,290,2014-04-08 04:15:00
9:35 PM,53.6,46.4,77,30.21,10.0,WNW,5.8,-,N/A,,Scattered Clouds,300,2014-04-08 04:35:00
9:55 PM,51.8,46.4,82,30.22,10.0,NNW,5.8,-,N/A,,Mostly Cloudy,340,2014-04-08 04:55:00
10:15 PM,51.8,44.6,76,30.22,10.0,North,5.8,-,N/A,,Overcast,350,2014-04-08 05:15:00
10:35 PM,51.8,44.6,76,30.22,10.0,NNW,4.6,-,N/A,,Overcast,330,2014-04-08 05:35:00
10:55 PM,51.8,44.6,76,30.22,10.0,North,5.8,-,N/A,,Overcast,360,2014-04-08 05:55:00
11:15 PM,51.8,44.6,76,30.22,10.0,North,4.6,-,N/A,,Overcast,360,2014-04-08 06:15:00
11:35 PM,51.8,44.6,76,30.23,10.0,NNW,4.6,-,N/A,,Overcast,330,2014-04-08 06:35:00
11:55 PM,51.8,44.6,76,30.24,10.0,NNW,5.8,-,N/A,,Overcast,340,2014-04-08 06:55:00